Time,TemperatureF,DewpointF,PressureIn,WindDirection,WindDirectionDegrees,WindSpeedMPH,WindSpeedGustMPH,Humidity,HourlyPrecipIn,Conditions,Clouds,dailyrainin,SolarRadiationWatts/m^2,SoftwareType,DateUTC
2013-10-18 00:21:00,33.0,26.0,-100.00,ESE,113,0.0,4.0,74,0.00,,,0.00,0.000000,,2013-10-18 06:21:00,
2013-10-18 00:33:00,33.0,26.0,-100.00,ESE,113,0.0,4.0,74,0.00,,,0.00,0.000000,,2013-10-18 06:33:00,
2013-10-18 00:42:00,33.0,26.0,-100.00,ESE,113,0.0,4.0,74,0.00,,,0.00,0.000000,,2013-10-18 06:42:00,
2013-10-18 00:52:00,33.0,26.0,-100.00,ESE,113,0.0,4.0,74,0.00,,,0.00,0.000000,,2013-10-18 06:52:00,
2013-10-18 01:21:00,34.0,27.0,-100.00,NNE,17,0.0,0.0,76,0.00,,,0.00,0.000000,,2013-10-18 07:21:00,
2013-10-18 01:32:00,34.0,27.0,-100.00,NNE,17,0.0,0.0,76,0.00,,,0.00,0.000000,,2013-10-18 07:32:00,
2013-10-18 01:42:00,34.0,27.0,-100.00,NNE,17,0.0,0.0,76,0.00,,,0.00,0.000000,,2013-10-18 07:42:00,
2013-10-18 01:52:00,34.0,27.0,-100.00,NNE,17,0.0,0.0,76,0.00,,,0.00,0.000000,,2013-10-18 07:52:00,
2013-10-18 02:22:00,34.0,27.0,-100.00,North,2,0.0,0.0,76,0.00,,,0.00,0.000000,,2013-10-18 08:22:00,
2013-10-18 02:31:00,34.0,27.0,-100.00,North,2,0.0,0.0,76,0.00,,,0.00,0.000000,,2013-10-18 08:31:00,
2013-10-18 02:42:00,34.0,27.0,-100.00,North,2,0.0,0.0,76,0.00,,,0.00,0.000000,,2013-10-18 08:42:00,
2013-10-18 02:52:00,34.0,27.0,-100.00,North,2,0.0,0.0,76,0.00,,,0.00,0.000000,,2013-10-18 08:52:00,
2013-10-18 03:21:00,32.0,25.0,-100.00,NNE,18,0.0,0.0,76,0.00,,,0.00,0.000000,,2013-10-18 09:21:00,
2013-10-18 03:33:00,32.0,25.0,-100.00,NNE,18,0.0,0.0,76,0.00,,,0.00,0.000000,,2013-10-18 09:33:00,
2013-10-18 03:43:00,32.0,25.0,-100.00,NNE,18,0.0,0.0,76,0.00,,,0.00,0.000000,,2013-10-18 09:43:00,
2013-10-18 03:53:00,32.0,25.0,-100.00,NNE,18,0.0,0.0,76,0.00,,,0.00,0.000000,,2013-10-18 09:53:00,
2013-10-18 04:23:00,33.0,28.0,-100.00,ENE,63,0.0,0.0,80,0.00,,,0.00,0.000000,,2013-10-18 10:23:00,
2013-10-18 04:33:00,33.0,28.0,-100.00,ENE,63,0.0,0.0,80,0.00,,,0.00,0.000000,,2013-10-18 10:33:00,
2013-10-18 04:42:00,33.0,28.0,-100.00,ENE,63,0.0,0.0,80,0.00,,,0.00,0.000000,,2013-10-18 10:42:00,
2013-10-18 04:53:00,33.0,28.0,-100.00,ENE,63,0.0,0.0,80,0.00,,,0.00,0.000000,,2013-10-18 10:53:00,
2013-10-18 05:22:00,33.0,27.0,-100.00,ENE,69,0.0,0.0,79,0.00,,,0.00,0.000000,,2013-10-18 11:22:00,
2013-10-18 05:33:00,33.0,27.0,-100.00,ENE,69,0.0,0.0,79,0.00,,,0.00,0.000000,,2013-10-18 11:33:00,
2013-10-18 05:42:00,33.0,27.0,-100.00,ENE,69,0.0,0.0,79,0.00,,,0.00,0.000000,,2013-10-18 11:42:00,
2013-10-18 05:52:00,33.0,27.0,-100.00,ENE,69,0.0,0.0,79,0.00,,,0.00,0.000000,,2013-10-18 11:52:00,
2013-10-18 06:21:00,32.0,25.0,-100.00,ENE,73,0.0,0.0,75,0.00,,,-99.99,0.000000,,2013-10-18 12:21:00,
2013-10-18 06:32:00,32.0,25.0,-100.00,ENE,73,0.0,0.0,75,0.00,,,-99.99,0.000000,,2013-10-18 12:32:00,
2013-10-18 06:42:00,32.0,25.0,-100.00,ENE,73,0.0,0.0,75,0.00,,,-99.99,0.000000,,2013-10-18 12:42:00,
2013-10-18 06:52:00,32.0,25.0,-100.00,ENE,73,0.0,0.0,75,0.00,,,-99.99,0.000000,,2013-10-18 12:52:00,
2013-10-18 07:22:00,33.0,27.0,-100.00,SSE,150,0.0,0.0,79,0.00,,,0.00,0.000000,,2013-10-18 13:22:00,
2013-10-18 07:32:00,33.0,27.0,-100.00,SSE,150,0.0,0.0,79,0.00,,,0.00,0.000000,,2013-10-18 13:32:00,
2013-10-18 07:42:00,33.0,27.0,-100.00,SSE,150,0.0,0.0,79,0.00,,,0.00,0.000000,,2013-10-18 13:42:00,
2013-10-18 07:52:00,33.0,27.0,-100.00,SSE,150,0.0,0.0,79,0.00,,,0.00,0.000000,,2013-10-18 13:52:00,
2013-10-18 08:21:00,32.0,28.0,-100.00,ENE,58,0.0,3.0,84,0.00,,,0.00,0.000000,,2013-10-18 14:21:00,
2013-10-18 08:32:00,32.0,28.0,-100.00,ENE,58,0.0,3.0,84,0.00,,,0.00,0.000000,,2013-10-18 14:32:00,
2013-10-18 08:42:00,32.0,28.0,-100.00,ENE,58,0.0,3.0,84,0.00,,,0.00,0.000000,,2013-10-18 14:42:00,
2013-10-18 08:52:00,32.0,28.0,-100.00,ENE,58,0.0,3.0,84,0.00,,,0.00,0.000000,,2013-10-18 14:52:00,
2013-10-18 09:22:00,32.0,26.0,-100.00,NE,53,0.0,0.0,79,0.00,,,0.00,13.000000,,2013-10-18 15:22:00,
2013-10-18 09:33:00,32.0,26.0,-100.00,NE,53,0.0,0.0,79,0.00,,,0.00,13.000000,,2013-10-18 15:33:00,
2013-10-18 09:43:00,32.0,26.0,-100.00,NE,53,0.0,0.0,79,0.00,,,0.00,13.000000,,2013-10-18 15:43:00,
2013-10-18 09:54:00,32.0,26.0,-100.00,NE,53,0.0,0.0,79,0.00,,,0.00,13.000000,,2013-10-18 15:54:00,
2013-10-18 10:24:00,36.0,28.0,-100.00,SSW,196,0.0,0.0,73,0.00,,,0.00,106.000000,,2013-10-18 16:24:00,
2013-10-18 10:33:00,36.0,28.0,-100.00,SSW,196,0.0,0.0,73,0.00,,,0.00,106.000000,,2013-10-18 16:33:00,
2013-10-18 10:42:00,36.0,28.0,-100.00,SSW,196,0.0,0.0,73,0.00,,,0.00,106.000000,,2013-10-18 16:42:00,
2013-10-18 10:53:00,36.0,28.0,-100.00,SSW,196,0.0,0.0,73,0.00,,,0.00,106.000000,,2013-10-18 16:53:00,
2013-10-18 11:22:00,42.0,29.0,-100.00,WSW,245,0.0,2.0,60,0.00,,,0.00,497.000000,,2013-10-18 17:22:00,
2013-10-18 11:33:00,42.0,29.0,-100.00,WSW,245,0.0,2.0,60,0.00,,,0.00,497.000000,,2013-10-18 17:33:00,
2013-10-18 11:42:00,42.0,29.0,-100.00,WSW,245,0.0,2.0,60,0.00,,,0.00,497.000000,,2013-10-18 17:42:00,
2013-10-18 11:52:00,42.0,29.0,-100.00,WSW,245,0.0,2.0,60,0.00,,,0.00,497.000000,,2013-10-18 17:52:00,
2013-10-18 12:21:00,44.0,31.0,-100.00,West,266,0.0,4.0,59,0.00,,,0.00,516.000000,,2013-10-18 18:21:00,
2013-10-18 12:32:00,44.0,31.0,-100.00,West,266,0.0,4.0,59,0.00,,,0.00,516.000000,,2013-10-18 18:32:00,
2013-10-18 12:42:00,44.0,31.0,-100.00,West,266,0.0,4.0,59,0.00,,,0.00,516.000000,,2013-10-18 18:42:00,
2013-10-18 12:52:00,44.0,31.0,-100.00,West,266,0.0,4.0,59,0.00,,,0.00,516.000000,,2013-10-18 18:52:00,
2013-10-18 13:21:00,49.0,29.0,-100.00,SSE,158,1.0,5.0,45,0.00,,,0.00,706.000000,,2013-10-18 19:21:00,
2013-10-18 13:32:00,49.0,29.0,-100.00,SSE,158,1.0,5.0,45,0.00,,,0.00,706.000000,,2013-10-18 19:32:00,
2013-10-18 13:42:00,49.0,29.0,-100.00,SSE,158,1.0,5.0,45,0.00,,,0.00,706.000000,,2013-10-18 19:42:00,
2013-10-18 13:52:00,49.0,29.0,-100.00,SSE,158,1.0,5.0,45,0.00,,,0.00,706.000000,,2013-10-18 19:52:00,
2013-10-18 14:22:00,51.0,28.0,-100.00,West,272,2.0,5.0,40,0.00,,,0.00,820.000000,,2013-10-18 20:22:00,
2013-10-18 14:32:00,51.0,28.0,-100.00,West,272,2.0,5.0,40,0.00,,,0.00,820.000000,,2013-10-18 20:32:00,
2013-10-18 14:42:00,51.0,28.0,-100.00,West,272,2.0,5.0,40,0.00,,,0.00,820.000000,,2013-10-18 20:42:00,
2013-10-18 14:52:00,51.0,28.0,-100.00,West,272,2.0,5.0,40,0.00,,,0.00,820.000000,,2013-10-18 20:52:00,
2013-10-18 15:22:00,53.0,27.0,-100.00,NNW,331,3.0,5.0,37,0.00,,,0.00,782.000000,,2013-10-18 21:22:00,
2013-10-18 15:34:00,53.0,27.0,-100.00,NNW,331,3.0,5.0,37,0.00,,,0.00,782.000000,,2013-10-18 21:34:00,
2013-10-18 15:44:00,53.0,27.0,-100.00,NNW,331,3.0,5.0,37,0.00,,,0.00,782.000000,,2013-10-18 21:44:00,
2013-10-18 15:54:00,53.0,27.0,-100.00,NNW,331,3.0,5.0,37,0.00,,,0.00,782.000000,,2013-10-18 21:54:00,
2013-10-18 16:24:00,54.0,26.0,-100.00,West,278,4.0,10.0,34,0.00,,,0.00,670.000000,,2013-10-18 22:24:00,
2013-10-18 16:33:00,54.0,26.0,-100.00,West,278,4.0,10.0,34,0.00,,,0.00,670.000000,,2013-10-18 22:33:00,
2013-10-18 16:43:00,54.0,26.0,-100.00,West,278,4.0,10.0,34,0.00,,,0.00,670.000000,,2013-10-18 22:43:00,
2013-10-18 16:54:00,54.0,26.0,-100.00,West,278,4.0,10.0,34,0.00,,,0.00,670.000000,,2013-10-18 22:54:00,
2013-10-18 17:23:00,50.0,25.0,-100.00,WSW,255,2.0,9.0,38,0.00,,,0.00,374.000000,,2013-10-18 23:23:00,
2013-10-18 17:33:00,50.0,25.0,-100.00,WSW,255,2.0,9.0,38,0.00,,,0.00,374.000000,,2013-10-18 23:33:00,
2013-10-18 17:42:00,50.0,25.0,-100.00,WSW,255,2.0,9.0,38,0.00,,,0.00,374.000000,,2013-10-18 23:42:00,
2013-10-18 17:53:00,50.0,25.0,-100.00,WSW,255,2.0,9.0,38,0.00,,,0.00,374.000000,,2013-10-18 23:53:00,
2013-10-18 18:22:00,48.0,27.0,-100.00,West,267,0.0,9.0,43,0.00,,,0.00,54.000000,,2013-10-19 00:22:00,
2013-10-18 18:32:00,48.0,27.0,-100.00,West,267,0.0,9.0,43,0.00,,,0.00,54.000000,,2013-10-19 00:32:00,
2013-10-18 18:42:00,48.0,27.0,-100.00,West,267,0.0,9.0,43,0.00,,,0.00,54.000000,,2013-10-19 00:42:00,
2013-10-18 18:52:00,48.0,27.0,-100.00,West,267,0.0,9.0,43,0.00,,,0.00,54.000000,,2013-10-19 00:52:00,
2013-10-18 19:21:00,45.0,28.0,-100.00,NNW,346,0.0,6.0,51,0.00,,,0.00,18.000000,,2013-10-19 01:21:00,
2013-10-18 19:32:00,45.0,28.0,-100.00,NNW,346,0.0,6.0,51,0.00,,,0.00,18.000000,,2013-10-19 01:32:00,
2013-10-18 19:42:00,45.0,28.0,-100.00,NNW,346,0.0,6.0,51,0.00,,,0.00,18.000000,,2013-10-19 01:42:00,
2013-10-18 19:52:00,45.0,28.0,-100.00,NNW,346,0.0,6.0,51,0.00,,,0.00,18.000000,,2013-10-19 01:52:00,
2013-10-18 20:22:00,43.0,23.0,-100.00,ESE,116,0.0,3.0,45,0.00,,,0.00,0.000000,,2013-10-19 02:22:00,
2013-10-18 20:32:00,43.0,23.0,-100.00,ESE,116,0.0,3.0,45,0.00,,,0.00,0.000000,,2013-10-19 02:32:00,
2013-10-18 20:42:00,43.0,23.0,-100.00,ESE,116,0.0,3.0,45,0.00,,,0.00,0.000000,,2013-10-19 02:42:00,
2013-10-18 20:52:00,43.0,23.0,-100.00,ESE,116,0.0,3.0,45,0.00,,,0.00,0.000000,,2013-10-19 02:52:00,
2013-10-18 21:23:00,43.0,24.0,-100.00,NNW,341,0.0,3.0,47,0.00,,,0.00,0.000000,,2013-10-19 03:23:00,
2013-10-18 21:34:00,43.0,24.0,-100.00,NNW,341,0.0,3.0,47,0.00,,,0.00,0.000000,,2013-10-19 03:34:00,
2013-10-18 21:44:00,43.0,24.0,-100.00,NNW,341,0.0,3.0,47,0.00,,,0.00,0.000000,,2013-10-19 03:44:00,
2013-10-18 21:54:00,43.0,24.0,-100.00,NNW,341,0.0,3.0,47,0.00,,,0.00,0.000000,,2013-10-19 03:54:00,
2013-10-18 22:24:00,42.0,24.0,-100.00,North,353,0.0,6.0,48,0.00,,,0.00,0.000000,,2013-10-19 04:24:00,
2013-10-18 22:34:00,42.0,24.0,-100.00,North,353,0.0,6.0,48,0.00,,,0.00,0.000000,,2013-10-19 04:34:00,
2013-10-18 22:43:00,42.0,24.0,-100.00,North,353,0.0,6.0,48,0.00,,,0.00,0.000000,,2013-10-19 04:43:00,
2013-10-18 22:54:00,42.0,24.0,-100.00,North,353,0.0,6.0,48,0.00,,,0.00,0.000000,,2013-10-19 04:54:00,
2013-10-18 23:22:00,41.0,23.0,-100.00,North,3,0.0,4.0,48,0.00,,,0.00,0.000000,,2013-10-19 05:22:00,
2013-10-18 23:34:00,41.0,23.0,-100.00,North,3,0.0,4.0,48,0.00,,,0.00,0.000000,,2013-10-19 05:34:00,
2013-10-18 23:42:00,41.0,23.0,-100.00,North,3,0.0,4.0,48,0.00,,,0.00,0.000000,,2013-10-19 05:42:00,
2013-10-18 23:52:00,41.0,23.0,-100.00,North,3,0.0,4.0,48,0.00,,,0.00,0.000000,,2013-10-19 05:52:00,